Retour au catalogue

COSMOS 2251 DEB

ActifLEO
NORAD 37089·DEBRIS·🇷🇺 Russia

Lancé Jun 16, 1993 depuis Plesetsk Cosmodrome

Loading…

Prochains Passages (prochaines 24 heures)

TLE

PériméSource: Space-Track

Époque: Sep 7, 2026, 13:50 UTC

1 37089U 93036BFK 26250.57644001  .00003324  00000-0  66265-3 0  9990
2 37089  74.0377 356.2361 0128775  28.0511 332.7513 14.57236690700217

Suivez COSMOS 2251 DEB en temps réel avec AllMySat

Download on the App Store